Find Azur

NORAD ID: 4221 Int'l Des: 1969-097 Owner: DFVLR Country: D operational
LEORETROGRADE

Live Position

Loading 3D Globe...

About Azur

Description loading...

Upcoming Passes

Passes for default location (London). Set your location on the main map for personalized predictions.

Altitude History

Loading altitude history...

Two-Line Element Set

1 4221U 69097A 26111.84460169 .00037140 00000-0 54634-3 0 9999
2 4221 102.6548 215.4516 0230033 358.2692 1.7709 15.30503299716798
Epoch: Apr 21, 2026 • Age: 6 hours

Current Status

Altitude 571.2 km
Velocity 7.53 km/s
Sub-Earth Point -55.90°S, 136.09°E
Type other

Most Searched